| time (UTC) | temp F | wind direction | speed MPH | gust MPH | rain 1hr in | rain 24hr in | rain mn in | humidity % | barometer mb |
| 20260906084503 | 77 | 0 | 0.0 | 0.0 | 0.00 | 0.00 | 0.00 | 91 | 1012.6 |
| 20260906084004 | 77 | 0 | 0.0 | 0.0 | 0.00 | 0.00 | 0.00 | 91 | 1012.6 |
| 20260906083003 | 77 | 0 | 0.0 | 0.0 | 0.00 | 0.00 | 0.00 | 90 | 1012.5 |
| 20260906082503 | 77 | 0 | 0.0 | 0.0 | 0.00 | 0.00 | 0.00 | 90 | 1012.6 |
| 20260906082003 | 77 | 0 | 0.0 | 0.0 | 0.00 | 0.00 | 0.00 | 90 | 1012.8 |
| 20260906081503 | 78 | 0 | 0.0 | 0.0 | 0.00 | 0.00 | 0.00 | 90 | 1012.8 |
| 20260906081003 | 78 | 0 | 0.0 | 0.0 | 0.00 | 0.00 | 0.00 | 90 | 1012.8 |
| 20260906080503 | 78 | 0 | 0.0 | 0.0 | 0.00 | 0.00 | 0.00 | 90 | 1012.8 |
| 20260906080004 | 78 | 0 | 0.0 | 0.0 | 0.00 | 0.00 | 0.00 | 89 | 1012.8 |
| 20260906075503 | 78 | 0 | 0.0 | 0.0 | 0.00 | 0.00 | 0.00 | 89 | 1012.8 |
| 20260906075004 | 78 | 0 | 0.0 | 0.0 | 0.00 | 0.00 | 0.00 | 89 | 1012.8 |
| 20260906074003 | 78 | 0 | 0.0 | 0.0 | 0.00 | 0.00 | 0.00 | 89 | 1012.8 |
| 20260906073503 | 79 | 168 | 0.0 | 1.0 | 0.00 | 0.00 | 0.00 | 89 | 1012.9 |
| 20260906073003 | 79 | 171 | 0.0 | 1.0 | 0.00 | 0.00 | 0.00 | 88 | 1012.8 |
| 20260906072504 | 79 | 173 | 0.0 | 1.0 | 0.00 | 0.00 | 0.00 | 88 | 1012.9 |
| 20260906072003 | 79 | 0 | 0.0 | 0.0 | 0.00 | 0.00 | 0.00 | 88 | 1012.9 |
| 20260906071503 | 79 | 0 | 0.0 | 0.0 | 0.00 | 0.00 | 0.00 | 87 | 1012.9 |
| 20260906071004 | 80 | 156 | 0.0 | 1.0 | 0.00 | 0.00 | 0.00 | 87 | 1012.8 |
| 20260906070503 | 80 | 164 | 0.0 | 2.0 | 0.00 | 0.00 | 0.00 | 87 | 1013.0 |
| 20260906070003 | 80 | 172 | 0.0 | 2.0 | 0.00 | 0.00 | 0.00 | 87 | 1012.9 |
| 20260906065003 | 80 | 0 | 0.0 | 0.0 | 0.00 | 0.00 | 0.00 | 87 | 1012.8 |
| 20260906064003 | 80 | 182 | 0.0 | 1.0 | 0.00 | 0.00 | 0.00 | 87 | 1012.6 |
| 20260906063504 | 80 | 178 | 0.0 | 3.0 | 0.00 | 0.00 | 0.00 | 86 | 1012.9 |
| 20260906063003 | 80 | 183 | 1.0 | 3.0 | 0.00 | 0.00 | 0.00 | 86 | 1012.9 |
| 20260906062503 | 80 | 189 | 1.0 | 3.0 | 0.00 | 0.00 | 0.00 | 86 | 1012.9 |
| 20260906062003 | 80 | 188 | 1.0 | 3.0 | 0.00 | 0.00 | 0.00 | 86 | 1012.9 |
| 20260906061503 | 80 | 177 | 0.0 | 3.0 | 0.00 | 0.00 | 0.00 | 85 | 1013.1 |
| 20260906061004 | 80 | 175 | 0.0 | 3.0 | 0.00 | 0.00 | 0.00 | 85 | 1013.2 |
| 20260906060003 | 81 | 170 | 1.0 | 3.0 | 0.00 | 0.00 | 0.00 | 85 | 1013.2 |
| 20260906054004 | 81 | 169 | 1.0 | 5.0 | 0.00 | 0.00 | 0.00 | 83 | 1013.2 |
| 20260906053504 | 81 | 173 | 1.0 | 5.0 | 0.00 | 0.00 | 0.00 | 83 | 1013.2 |
| 20260906053004 | 82 | 179 | 0.0 | 5.0 | 0.00 | 0.00 | 0.00 | 83 | 1013.2 |
| 20260906052504 | 82 | 172 | 0.0 | 2.0 | 0.00 | 0.00 | 0.00 | 82 | 1013.2 |
| 20260906052004 | 82 | 174 | 0.0 | 2.0 | 0.00 | 0.00 | 0.00 | 82 | 1013.2 |
| 20260906051503 | 82 | 173 | 0.0 | 2.0 | 0.00 | 0.00 | 0.00 | 81 | 1013.3 |
| 20260906050002 | 82 | 168 | 1.0 | 3.0 | 0.00 | 0.00 | 0.00 | 80 | 1013.0 |
| 20260906045501 | 82 | 162 | 1.0 | 3.0 | 0.00 | 0.00 | 0.00 | 80 | 1013.1 |
| 20260906045001 | 83 | 169 | 1.0 | 4.0 | 0.00 | 0.00 | 0.00 | 79 | 1013.2 |
| 20260906044001 | 83 | 181 | 2.0 | 6.0 | 0.00 | 0.00 | 0.00 | 79 | 1012.7 |
| 20260906043501 | 83 | 184 | 1.0 | 6.0 | 0.00 | 0.00 | 0.00 | 79 | 1012.8 |
| 20260906043001 | 83 | 189 | 1.0 | 3.0 | 0.00 | 0.00 | 0.00 | 79 | 1012.8 |
| 20260906042502 | 83 | 185 | 0.0 | 2.0 | 0.00 | 0.00 | 0.00 | 79 | 1012.9 |
| 20260906042001 | 83 | 196 | 0.0 | 2.0 | 0.00 | 0.00 | 0.00 | 79 | 1012.8 |
| 20260906041502 | 83 | 176 | 1.0 | 4.0 | 0.00 | 0.00 | 0.00 | 79 | 1012.9 |
| 20260906041001 | 83 | 175 | 2.0 | 5.0 | 0.00 | 0.00 | 0.00 | 79 | 1013.1 |
| 20260906040501 | 84 | 173 | 1.0 | 5.0 | 0.00 | 0.00 | 0.00 | 78 | 1013.2 |
| 20260906040001 | 84 | 168 | 1.0 | 5.0 | 0.00 | 0.00 | 0.00 | 78 | 1013.2 |
| 20260906035501 | 84 | 176 | 1.0 | 5.0 | 0.00 | 0.00 | 0.00 | 77 | 1013.2 |
| 20260906034001 | 84 | 173 | 1.0 | 5.0 | 0.00 | 0.00 | 0.00 | 77 | 1013.1 |
| 20260906033001 | 84 | 176 | 0.0 | 2.0 | 0.00 | 0.00 | 0.00 | 77 | 1012.9 |
| 20260906031502 | 84 | 169 | 0.0 | 3.0 | 0.00 | 0.00 | 0.00 | 77 | 1013.1 |
| 20260906031001 | 84 | 158 | 0.0 | 2.0 | 0.00 | 0.00 | 0.00 | 76 | 1012.9 |
| 20260906030002 | 85 | 185 | 1.0 | 4.0 | 0.00 | 0.00 | 0.00 | 76 | 1012.9 |
| 20260906025501 | 85 | 188 | 1.0 | 4.0 | 0.00 | 0.00 | 0.00 | 76 | 1012.8 |
| 20260906025001 | 85 | 193 | 1.0 | 3.0 | 0.00 | 0.00 | 0.00 | 76 | 1012.9 |
| 20260906024501 | 85 | 188 | 1.0 | 3.0 | 0.00 | 0.00 | 0.00 | 76 | 1012.9 |
| 20260906024002 | 85 | 175 | 1.0 | 6.0 | 0.00 | 0.00 | 0.00 | 76 | 1012.8 |
| 20260906023501 | 85 | 175 | 1.0 | 6.0 | 0.00 | 0.00 | 0.00 | 76 | 1012.7 |
| 20260906023001 | 85 | 174 | 1.0 | 5.0 | 0.00 | 0.00 | 0.00 | 75 | 1012.7 |
| 20260906022501 | 85 | 179 | 1.0 | 5.0 | 0.00 | 0.00 | 0.00 | 75 | 1012.6 |
| 20260906022001 | 86 | 183 | 1.0 | 4.0 | 0.00 | 0.00 | 0.00 | 75 | 1012.5 |
| 20260906021502 | 86 | 172 | 1.0 | 4.0 | 0.00 | 0.00 | 0.00 | 75 | 1012.4 |
| 20260906020501 | 86 | 170 | 1.0 | 5.0 | 0.00 | 0.00 | 0.00 | 75 | 1012.2 |
| 20260906015002 | 86 | 176 | 1.0 | 4.0 | 0.00 | 0.00 | 0.00 | 74 | 1012.1 |
| 20260906014501 | 86 | 172 | 1.0 | 4.0 | 0.00 | 0.00 | 0.00 | 74 | 1012.0 |
| 20260906013501 | 87 | 161 | 1.0 | 5.0 | 0.00 | 0.00 | 0.00 | 73 | 1011.9 |
| 20260906013002 | 87 | 157 | 1.0 | 3.0 | 0.00 | 0.00 | 0.00 | 72 | 1011.8 |
| 20260906012001 | 87 | 166 | 1.0 | 5.0 | 0.00 | 0.00 | 0.00 | 71 | 1011.7 |
| 20260906011502 | 87 | 166 | 1.0 | 4.0 | 0.00 | 0.00 | 0.00 | 70 | 1011.5 |
| 20260906011002 | 88 | 168 | 1.0 | 4.0 | 0.00 | 0.00 | 0.00 | 70 | 1011.5 |
| 20260906010501 | 88 | 173 | 2.0 | 6.0 | 0.00 | 0.00 | 0.00 | 69 | 1011.5 |
| 20260906010002 | 88 | 170 | 2.0 | 8.0 | 0.00 | 0.00 | 0.00 | 69 | 1011.5 |
| 20260906005502 | 88 | 161 | 2.0 | 8.0 | 0.00 | 0.00 | 0.00 | 68 | 1011.5 |
| 20260906005002 | 89 | 155 | 2.0 | 8.0 | 0.00 | 0.00 | 0.00 | 67 | 1011.4 |
| 20260906004501 | 89 | 150 | 2.0 | 8.0 | 0.00 | 0.00 | 0.00 | 66 | 1011.6 |
| 20260906004002 | 90 | 151 | 3.0 | 8.0 | 0.00 | 0.00 | 0.00 | 65 | 1011.6 |
| 20260906003502 | 90 | 144 | 2.0 | 10.0 | 0.00 | 0.00 | 0.00 | 64 | 1011.5 |
| 20260906003002 | 91 | 147 | 3.0 | 10.0 | 0.00 | 0.00 | 0.00 | 63 | 1011.5 |
| 20260906001001 | 95 | 150 | 2.0 | 11.0 | 0.00 | 0.00 | 0.00 | 56 | 1011.2 |
| 20260906000502 | 96 | 152 | 2.0 | 10.0 | 0.00 | 0.00 | 0.00 | 55 | 1011.1 |
| 20260906000002 | 96 | 162 | 3.0 | 10.0 | 0.00 | 0.00 | 0.00 | 54 | 1011.1 |
| 20260905235502 | 97 | 162 | 3.0 | 10.0 | 0.00 | 0.00 | 0.00 | 54 | 1011.2 |
| 20260905234502 | 98 | 157 | 2.0 | 8.0 | 0.00 | 0.00 | 0.00 | 54 | 1011.0 |
| 20260905233502 | 100 | 149 | 1.0 | 9.0 | 0.00 | 0.00 | 0.00 | 51 | 1010.8 |
| 20260905233002 | 101 | 153 | 0.0 | 3.0 | 0.00 | 0.00 | 0.00 | 48 | 1010.7 |
| 20260905232002 | 101 | 186 | 1.0 | 3.0 | 0.00 | 0.00 | 0.00 | 47 | 1010.7 |
| 20260905231502 | 101 | 160 | 0.0 | 2.0 | 0.00 | 0.00 | 0.00 | 47 | 1010.8 |
| 20260905231002 | 101 | 120 | 0.0 | 2.0 | 0.00 | 0.00 | 0.00 | 47 | 1010.8 |
| 20260905230502 | 101 | 109 | 0.0 | 5.0 | 0.00 | 0.00 | 0.00 | 48 | 1010.9 |
| 20260905230002 | 101 | 112 | 0.0 | 5.0 | 0.00 | 0.00 | 0.00 | 47 | 1010.9 |
| 20260905225502 | 101 | 107 | 0.0 | 1.0 | 0.00 | 0.00 | 0.00 | 47 | 1010.8 |
| 20260905225001 | 101 | 84 | 0.0 | 2.0 | 0.00 | 0.00 | 0.00 | 47 | 1010.9 |
| 20260905224502 | 101 | 81 | 0.0 | 3.0 | 0.00 | 0.00 | 0.00 | 47 | 1010.8 |
| 20260905224002 | 101 | 96 | 0.0 | 3.0 | 0.00 | 0.00 | 0.00 | 47 | 1010.8 |
| 20260905223502 | 101 | 117 | 1.0 | 3.0 | 0.00 | 0.00 | 0.00 | 48 | 1010.7 |
| 20260905223001 | 101 | 110 | 1.0 | 3.0 | 0.00 | 0.00 | 0.00 | 47 | 1010.8 |
| 20260905222501 | 101 | 86 | 0.0 | 3.0 | 0.00 | 0.00 | 0.00 | 49 | 1010.7 |
| 20260905222001 | 101 | 68 | 0.0 | 2.0 | 0.00 | 0.00 | 0.00 | 48 | 1010.7 |
| 20260905221502 | 101 | 81 | 0.0 | 2.0 | 0.00 | 0.00 | 0.00 | 48 | 1010.8 |
| 20260905221002 | 101 | 66 | 0.0 | 2.0 | 0.00 | 0.00 | 0.00 | 48 | 1010.8 |
| 20260905220502 | 101 | 87 | 0.0 | 3.0 | 0.00 | 0.00 | 0.00 | 48 | 1010.8 |
| 20260905220002 | 102 | 109 | 0.0 | 3.0 | 0.00 | 0.00 | 0.00 | 48 | 1010.9 |
| 20260905215502 | 102 | 106 | 0.0 | 2.0 | 0.00 | 0.00 | 0.00 | 47 | 1010.9 |
| 20260905215002 | 103 | 102 | 0.0 | 2.0 | 0.00 | 0.00 | 0.00 | 46 | 1011.0 |
| 20260905214502 | 103 | 179 | 0.0 | 3.0 | 0.00 | 0.00 | 0.00 | 47 | 1011.1 |
| 20260905214003 | 102 | 143 | 0.0 | 3.0 | 0.00 | 0.00 | 0.00 | 46 | 1011.0 |
| 20260905213002 | 102 | 120 | 0.0 | 3.0 | 0.00 | 0.00 | 0.00 | 48 | 1011.1 |
| 20260905212002 | 102 | 99 | 0.0 | 3.0 | 0.00 | 0.00 | 0.00 | 46 | 1011.2 |
| 20260905211502 | 102 | 121 | 0.0 | 3.0 | 0.00 | 0.00 | 0.00 | 46 | 1011.2 |
| 20260905211002 | 102 | 105 | 0.0 | 3.0 | 0.00 | 0.00 | 0.00 | 47 | 1011.3 |
| 20260905210502 | 102 | 85 | 0.0 | 3.0 | 0.00 | 0.00 | 0.00 | 48 | 1011.3 |
| 20260905210002 | 102 | 102 | 1.0 | 3.0 | 0.00 | 0.00 | 0.00 | 46 | 1011.4 |
| 20260905205502 | 102 | 124 | 0.0 | 3.0 | 0.00 | 0.00 | 0.00 | 47 | 1011.5 |
| 20260905204502 | 102 | 122 | 0.0 | 3.0 | 0.00 | 0.00 | 0.00 | 48 | 1011.5 |
| 20260905204002 | 101 | 112 | 1.0 | 3.0 | 0.00 | 0.00 | 0.00 | 49 | 1011.5 |
| 20260905203502 | 101 | 81 | 1.0 | 3.0 | 0.00 | 0.00 | 0.00 | 49 | 1011.7 |
| 20260905203002 | 101 | 90 | 0.0 | 3.0 | 0.00 | 0.00 | 0.00 | 49 | 1011.9 |
| 20260905202502 | 101 | 97 | 0.0 | 3.0 | 0.00 | 0.00 | 0.00 | 48 | 1011.9 |
| 20260905201002 | 100 | 90 | 0.0 | 4.0 | 0.00 | 0.00 | 0.00 | 51 | 1012.0 |
| 20260905200501 | 100 | 66 | 0.0 | 3.0 | 0.00 | 0.00 | 0.00 | 51 | 1012.0 |
| 20260905200002 | 100 | 71 | 1.0 | 3.0 | 0.00 | 0.00 | 0.00 | 50 | 1012.1 |
| 20260905195502 | 100 | 81 | 1.0 | 3.0 | 0.00 | 0.00 | 0.00 | 50 | 1012.1 |
| 20260905195001 | 100 | 115 | 1.0 | 4.0 | 0.00 | 0.00 | 0.00 | 50 | 1012.1 |
| 20260905194503 | 100 | 115 | 1.0 | 5.0 | 0.00 | 0.00 | 0.00 | 50 | 1012.2 |
| 20260905194002 | 100 | 115 | 1.0 | 6.0 | 0.00 | 0.00 | 0.00 | 50 | 1012.3 |
| 20260905193002 | 100 | 71 | 1.0 | 4.0 | 0.00 | 0.00 | 0.00 | 49 | 1012.5 |
| 20260905192502 | 101 | 76 | 1.0 | 4.0 | 0.00 | 0.00 | 0.00 | 49 | 1012.6 |
| 20260905191502 | 100 | 121 | 1.0 | 4.0 | 0.00 | 0.00 | 0.00 | 50 | 1012.7 |
| 20260905191002 | 101 | 170 | 1.0 | 4.0 | 0.00 | 0.00 | 0.00 | 49 | 1013.0 |
| 20260905190502 | 100 | 184 | 1.0 | 4.0 | 0.00 | 0.00 | 0.00 | 51 | 1013.1 |
| 20260905190002 | 100 | 185 | 1.0 | 6.0 | 0.00 | 0.00 | 0.00 | 50 | 1013.2 |
| 20260905185502 | 100 | 183 | 1.0 | 6.0 | 0.00 | 0.00 | 0.00 | 50 | 1013.2 |
| 20260905185002 | 100 | 151 | 1.0 | 5.0 | 0.00 | 0.00 | 0.00 | 51 | 1013.5 |
| 20260905184502 | 100 | 131 | 0.0 | 5.0 | 0.00 | 0.00 | 0.00 | 51 | 1013.5 |
| 20260905183502 | 99 | 73 | 1.0 | 4.0 | 0.00 | 0.00 | 0.00 | 52 | 1013.7 |
| 20260905183002 | 99 | 86 | 1.0 | 4.0 | 0.00 | 0.00 | 0.00 | 52 | 1013.8 |
| 20260905182503 | 99 | 82 | 1.0 | 4.0 | 0.00 | 0.00 | 0.00 | 52 | 1013.9 |
| 20260905182002 | 98 | 100 | 1.0 | 6.0 | 0.00 | 0.00 | 0.00 | 53 | 1014.0 |
| 20260905181503 | 98 | 116 | 1.0 | 6.0 | 0.00 | 0.00 | 0.00 | 53 | 1014.0 |
| 20260905181003 | 98 | 130 | 1.0 | 5.0 | 0.00 | 0.00 | 0.00 | 53 | 1014.1 |
| 20260905180503 | 99 | 145 | 1.0 | 4.0 | 0.00 | 0.00 | 0.00 | 52 | 1014.2 |
| 20260905180003 | 98 | 120 | 1.0 | 4.0 | 0.00 | 0.00 | 0.00 | 54 | 1014.2 |
| 20260905175502 | 98 | 88 | 0.0 | 2.0 | 0.00 | 0.00 | 0.00 | 55 | 1014.3 |
| 20260905175002 | 98 | 107 | 1.0 | 4.0 | 0.00 | 0.00 | 0.00 | 55 | 1014.4 |
| 20260905174003 | 97 | 73 | 1.0 | 4.0 | 0.00 | 0.00 | 0.00 | 56 | 1014.5 |
| 20260905173503 | 96 | 77 | 1.0 | 4.0 | 0.00 | 0.00 | 0.00 | 56 | 1014.5 |
| 20260905173003 | 96 | 92 | 1.0 | 4.0 | 0.00 | 0.00 | 0.00 | 57 | 1014.5 |
| 20260905172503 | 95 | 119 | 1.0 | 4.0 | 0.00 | 0.00 | 0.00 | 59 | 1014.6 |
| 20260905172002 | 95 | 122 | 1.0 | 4.0 | 0.00 | 0.00 | 0.00 | 58 | 1014.8 |
| 20260905171503 | 96 | 116 | 1.0 | 4.0 | 0.00 | 0.00 | 0.00 | 58 | 1014.7 |
| 20260905171003 | 96 | 109 | 0.0 | 3.0 | 0.00 | 0.00 | 0.00 | 59 | 1014.7 |
| 20260905170503 | 95 | 96 | 0.0 | 2.0 | 0.00 | 0.00 | 0.00 | 60 | 1014.8 |
| 20260905170003 | 95 | 101 | 1.0 | 3.0 | 0.00 | 0.00 | 0.00 | 60 | 1014.8 |
| 20260905165502 | 95 | 101 | 0.0 | 3.0 | 0.00 | 0.00 | 0.00 | 61 | 1014.8 |
| 20260905165002 | 94 | 90 | 0.0 | 2.0 | 0.00 | 0.00 | 0.00 | 62 | 1014.8 |
| 20260905164502 | 94 | 71 | 0.0 | 2.0 | 0.00 | 0.00 | 0.00 | 62 | 1014.9 |
| 20260905163503 | 94 | 114 | 0.0 | 4.0 | 0.00 | 0.00 | 0.00 | 63 | 1015.0 |
| 20260905163002 | 93 | 85 | 0.0 | 4.0 | 0.00 | 0.00 | 0.00 | 64 | 1015.0 |
| 20260905162502 | 93 | 114 | 1.0 | 4.0 | 0.00 | 0.00 | 0.00 | 64 | 1015.1 |
| 20260905162003 | 93 | 125 | 1.0 | 5.0 | 0.00 | 0.00 | 0.00 | 64 | 1015.0 |
| 20260905161502 | 93 | 130 | 1.0 | 5.0 | 0.00 | 0.00 | 0.00 | 65 | 1015.0 |
| 20260905161003 | 93 | 127 | 1.0 | 4.0 | 0.00 | 0.00 | 0.00 | 64 | 1014.9 |
| 20260905160503 | 93 | 124 | 0.0 | 4.0 | 0.00 | 0.00 | 0.00 | 66 | 1015.0 |
| 20260905160003 | 92 | 139 | 0.0 | 1.0 | 0.00 | 0.00 | 0.00 | 67 | 1015.0 |
| 20260905155003 | 92 | 110 | 0.0 | 2.0 | 0.00 | 0.00 | 0.00 | 67 | 1015.0 |
| 20260905154503 | 92 | 259 | 0.0 | 2.0 | 0.00 | 0.00 | 0.00 | 69 | 1015.0 |
| 20260905154003 | 91 | 267 | 1.0 | 3.0 | 0.00 | 0.00 | 0.00 | 66 | 1015.2 |
| 20260905153002 | 91 | 242 | 0.0 | 3.0 | 0.00 | 0.00 | 0.00 | 68 | 1014.9 |
| 20260905152502 | 90 | 275 | 0.0 | 4.0 | 0.00 | 0.00 | 0.00 | 68 | 1015.0 |
| 20260905152003 | 90 | 270 | 1.0 | 4.0 | 0.00 | 0.00 | 0.00 | 69 | 1014.9 |
| 20260905151502 | 90 | 266 | 1.0 | 4.0 | 0.00 | 0.00 | 0.00 | 69 | 1014.9 |
| 20260905151002 | 89 | 280 | 1.0 | 5.0 | 0.00 | 0.00 | 0.00 | 70 | 1014.8 |
| 20260905150503 | 88 | 286 | 1.0 | 5.0 | 0.00 | 0.00 | 0.00 | 71 | 1014.7 |
| 20260905150003 | 88 | 281 | 1.0 | 5.0 | 0.00 | 0.00 | 0.00 | 72 | 1014.8 |
| 20260905145502 | 88 | 280 | 1.0 | 4.0 | 0.00 | 0.00 | 0.00 | 72 | 1014.8 |
| 20260905145002 | 88 | 282 | 0.0 | 3.0 | 0.00 | 0.00 | 0.00 | 72 | 1014.7 |
| 20260905144502 | 87 | 273 | 0.0 | 3.0 | 0.00 | 0.00 | 0.00 | 74 | 1014.7 |
| 20260905144002 | 86 | 270 | 1.0 | 3.0 | 0.00 | 0.00 | 0.00 | 75 | 1014.7 |
| 20260905143503 | 86 | 276 | 1.0 | 3.0 | 0.00 | 0.00 | 0.00 | 75 | 1014.7 |
| 20260905143003 | 86 | 280 | 1.0 | 3.0 | 0.00 | 0.00 | 0.00 | 75 | 1014.7 |
| 20260905142503 | 85 | 288 | 0.0 | 3.0 | 0.00 | 0.00 | 0.00 | 76 | 1014.8 |
| 20260905142003 | 85 | 288 | 0.0 | 3.0 | 0.00 | 0.00 | 0.00 | 75 | 1014.9 |
| 20260905141503 | 86 | 256 | 0.0 | 3.0 | 0.00 | 0.00 | 0.00 | 75 | 1014.7 |
| 20260905141003 | 85 | 216 | 0.0 | 2.0 | 0.00 | 0.00 | 0.00 | 76 | 1014.8 |
| 20260905140004 | 84 | 196 | 0.0 | 1.0 | 0.00 | 0.00 | 0.00 | 77 | 1014.8 |
| 20260905135502 | 83 | 193 | 0.0 | 1.0 | 0.00 | 0.00 | 0.00 | 79 | 1014.8 |
| 20260905135002 | 83 | 197 | 0.0 | 2.0 | 0.00 | 0.00 | 0.00 | 79 | 1014.7 |
| 20260905134503 | 82 | 201 | 0.0 | 2.0 | 0.00 | 0.00 | 0.00 | 80 | 1014.7 |
| 20260905134003 | 82 | 0 | 0.0 | 0.0 | 0.00 | 0.00 | 0.00 | 81 | 1014.7 |
| 20260905133502 | 80 | 0 | 0.0 | 0.0 | 0.00 | 0.00 | 0.00 | 83 | 1014.6 |
| 20260905133002 | 80 | 0 | 0.0 | 0.0 | 0.00 | 0.00 | 0.00 | 84 | 1014.5 |
| 20260905132502 | 79 | 203 | 0.0 | 1.0 | 0.00 | 0.00 | 0.00 | 85 | 1014.4 |
| 20260905131503 | 78 | 204 | 0.0 | 2.0 | 0.00 | 0.00 | 0.00 | 85 | 1014.4 |
| 20260905131003 | 78 | 203 | 0.0 | 2.0 | 0.00 | 0.00 | 0.00 | 86 | 1014.4 |
| 20260905130503 | 78 | 197 | 0.0 | 2.0 | 0.00 | 0.00 | 0.00 | 86 | 1014.3 |
| 20260905130003 | 77 | 195 | 0.0 | 3.0 | 0.00 | 0.00 | 0.00 | 86 | 1014.2 |
| 20260905125503 | 77 | 187 | 1.0 | 3.0 | 0.00 | 0.00 | 0.00 | 87 | 1014.2 |
| 20260905125003 | 77 | 183 | 1.0 | 3.0 | 0.00 | 0.00 | 0.00 | 87 | 1014.0 |
| 20260905124503 | 76 | 196 | 0.0 | 3.0 | 0.00 | 0.00 | 0.00 | 88 | 1014.0 |
| 20260905124002 | 76 | 209 | 0.0 | 2.0 | 0.00 | 0.00 | 0.00 | 88 | 1014.1 |
| 20260905123503 | 76 | 0 | 0.0 | 0.0 | 0.00 | 0.00 | 0.00 | 88 | 1014.1 |
| 20260905122503 | 76 | 0 | 0.0 | 0.0 | 0.00 | 0.00 | 0.00 | 88 | 1014.1 |
| 20260905122002 | 76 | 0 | 0.0 | 0.0 | 0.00 | 0.00 | 0.00 | 88 | 1014.1 |
| 20260905121503 | 76 | 0 | 0.0 | 0.0 | 0.00 | 0.00 | 0.00 | 88 | 1014.1 |
| 20260905121003 | 76 | 0 | 0.0 | 0.0 | 0.00 | 0.00 | 0.00 | 88 | 1014.1 |
| 20260905120003 | 76 | 0 | 0.0 | 0.0 | 0.00 | 0.00 | 0.00 | 87 | 1014.1 |
| 20260905115503 | 76 | 0 | 0.0 | 0.0 | 0.00 | 0.00 | 0.00 | 88 | 1014.0 |
| 20260905115003 | 76 | 0 | 0.0 | 0.0 | 0.00 | 0.00 | 0.00 | 87 | 1014.0 |
| 20260905114503 | 76 | 0 | 0.0 | 0.0 | 0.00 | 0.00 | 0.00 | 87 | 1014.1 |
| 20260905114002 | 76 | 0 | 0.0 | 0.0 | 0.00 | 0.00 | 0.00 | 87 | 1014.0 |
| 20260905113503 | 76 | 0 | 0.0 | 0.0 | 0.00 | 0.00 | 0.00 | 88 | 1014.0 |
| 20260905113003 | 76 | 0 | 0.0 | 0.0 | 0.00 | 0.00 | 0.00 | 88 | 1014.0 |
| 20260905112003 | 76 | 0 | 0.0 | 0.0 | 0.00 | 0.00 | 0.00 | 88 | 1014.1 |
| 20260905111503 | 76 | 0 | 0.0 | 0.0 | 0.00 | 0.00 | 0.00 | 88 | 1014.0 |
| 20260905111003 | 76 | 0 | 0.0 | 0.0 | 0.00 | 0.00 | 0.00 | 88 | 1013.9 |
| 20260905110503 | 76 | 0 | 0.0 | 0.0 | 0.00 | 0.00 | 0.00 | 87 | 1014.0 |
| 20260905110003 | 76 | 0 | 0.0 | 0.0 | 0.00 | 0.00 | 0.00 | 87 | 1014.0 |
| 20260905105502 | 76 | 0 | 0.0 | 0.0 | 0.00 | 0.00 | 0.00 | 87 | 1013.9 |
| 20260905105003 | 76 | 0 | 0.0 | 0.0 | 0.00 | 0.00 | 0.00 | 87 | 1013.9 |
| 20260905104503 | 76 | 0 | 0.0 | 0.0 | 0.00 | 0.00 | 0.00 | 87 | 1013.8 |
| 20260905104003 | 76 | 0 | 0.0 | 0.0 | 0.00 | 0.00 | 0.00 | 87 | 1013.8 |
| 20260905103003 | 77 | 0 | 0.0 | 0.0 | 0.00 | 0.00 | 0.00 | 87 | 1013.8 |
| 20260905102503 | 77 | 0 | 0.0 | 0.0 | 0.00 | 0.00 | 0.00 | 87 | 1013.8 |
| 20260905102003 | 77 | 0 | 0.0 | 0.0 | 0.00 | 0.00 | 0.00 | 87 | 1013.8 |
| 20260905101003 | 77 | 0 | 0.0 | 0.0 | 0.00 | 0.00 | 0.00 | 87 | 1013.9 |
| 20260905100502 | 77 | 0 | 0.0 | 0.0 | 0.00 | 0.00 | 0.00 | 86 | 1013.8 |
| 20260905100003 | 77 | 0 | 0.0 | 0.0 | 0.00 | 0.00 | 0.00 | 86 | 1013.8 |
| 20260905095002 | 77 | 0 | 0.0 | 0.0 | 0.00 | 0.00 | 0.00 | 86 | 1013.7 |
| 20260905094503 | 77 | 0 | 0.0 | 0.0 | 0.00 | 0.00 | 0.00 | 86 | 1013.8 |
| 20260905094003 | 77 | 0 | 0.0 | 0.0 | 0.00 | 0.00 | 0.00 | 86 | 1013.8 |
| 20260905093003 | 77 | 0 | 0.0 | 0.0 | 0.00 | 0.00 | 0.00 | 85 | 1013.7 |
| 20260905092503 | 78 | 0 | 0.0 | 0.0 | 0.00 | 0.00 | 0.00 | 85 | 1013.7 |
| 20260905092003 | 78 | 0 | 0.0 | 0.0 | 0.00 | 0.00 | 0.00 | 84 | 1013.7 |
| 20260905091503 | 78 | 0 | 0.0 | 0.0 | 0.00 | 0.00 | 0.00 | 84 | 1013.6 |
| 20260905091003 | 78 | 0 | 0.0 | 0.0 | 0.00 | 0.00 | 0.00 | 84 | 1013.6 |
| 20260905090503 | 78 | 0 | 0.0 | 0.0 | 0.00 | 0.00 | 0.00 | 83 | 1013.7 |
| 20260905085503 | 78 | 0 | 0.0 | 0.0 | 0.00 | 0.00 | 0.00 | 83 | 1013.6 |